Location: Moena
(46.3667°N, 11.6500°E)
Time: 14:39:14
(UTC+00:00)

Cosmos 2333 Rocket - Pass Details

Date: 18 June 2021
Orbit: 841 x 861 km, 70.8° (Epoch: 26 July)

Event Time Altitude Azimuth Distance (km) Brightness Sun altitude
Rises 22:25:36 0° 239° (WSW) 3,426 5.2 -19.3°
Reaches altitude 10° 22:28:22 10° 250° (WSW) 2,491 4.5 -19.4°
Maximum altitude 22:33:21 30° 310° (NW) 1,498 4.0 -19.6°
Drops below altitude 10° 22:38:20 10° 11° (N) 2,492 5.7 -19.7°
Sets 22:41:07 0° 22° (NNE) 3,428 6.4 -19.8°
